This demonstration page uses our WeatherBlox Daily Observations layout. Learn more.

Left ArrowRight Arrow

34.02893, -84.19858

Hourly Observations for December 12, 2018

Temp ( °F °C ) Dew Point ( °F °C ) Humidity (%) Winds ( mph kmh ) Pressure ( in mb ) Visibility ( mi km ) Precip ( " mm )
12:53 am 00:53 Clear 29 -1.7 24 -4.4 82 82 Calm 30.27 1025 10 16 0.00 0.00
1:53 am 01:53 Clear 30 -1.1 24 -4.4 79 79 W 3 6 30.27 1025 10 16 0.00 0.00
2:53 am 02:53 Clear 30 -1.1 25 -3.9 82 82 Calm 30.27 1025 10 16 0.00 0.00
3:53 am 03:53 Clear 30 -1.1 25 -3.9 82 82 Calm 30.27 1025 10 16 0.00 0.00
4:53 am 04:53 Clear 30 -1.1 25 -3.9 82 82 Calm 30.27 1025 10 16 0.00 0.00
5:53 am 05:53 Clear 28 -2.2 25 -3.9 88 88 Calm 30.28 1025 10 16 0.00 0.00
6:53 am 06:53 Clear 26 -3.3 23 -5 88 88 Calm 30.28 1026 10 16 0.00 0.00
7:53 am 07:53 Sunny 29 -1.7 26 -3.3 89 89 Calm 30.29 1026 10 16 0.00 0.00
8:53 am 08:53 Sunny 32 0 28 -2.2 85 85 S 3 6 30.29 1026 10 16 0.00 0.00
9:53 am 09:53 Sunny 36 2.2 29 -1.7 76 76 Calm 30.28 1026 10 16 0.00 0.00
10:53 am 10:53 Sunny 41 5 29 -1.7 62 62 W 7 11 30.28 1025 10 16 0.00 0.00
11:53 am 11:53 Sunny 45 7.2 28 -2.2 52 52 W 7 11 30.27 1025 8 13 0.00 0.00
12:53 pm 12:53 Sunny 47 8.3 27 -2.8 46 46 SW 5 7 30.24 1024 8 13 0.00 0.00
1:53 pm 13:53 Sunny 49 9.4 25 -3.9 39 39 W 5 7 30.22 1023 9 14 0.00 0.00
2:53 pm 14:53 Sunny 51 10.6 24 -4.4 35 35 VRB 5 7 30.20 1023 10 16 0.00 0.00
3:53 pm 15:53 Sunny 50 10 28 -2.2 43 43 SW 6 9 30.21 1023 9 14 0.00 0.00
4:53 pm 16:53 Sunny 48 8.9 26 -3.3 42 42 SW 9 15 30.21 1023 9 14 0.00 0.00
5:53 pm 17:53 Clear 44 6.7 26 -3.3 49 49 Calm 30.23 1024 10 16 0.00 0.00
6:53 pm 18:53 Clear 41 5 28 -2.2 60 60 Calm 30.23 1024 10 16 0.00 0.00
7:53 pm 19:53 Clear 39 3.9 29 -1.7 67 67 Calm 30.25 1024 10 16 0.00 0.00
8:53 pm 20:53 Clear 36 2.2 30 -1.1 79 79 Calm 30.26 1025 9 14 0.00 0.00
9:53 pm 21:53 Clear 35 1.7 30 -1.1 82 82 Calm 30.25 1024 9 14 0.00 0.00
10:53 pm 22:53 Clear 36 2.2 31 -0.6 82 82 Calm 30.24 1024 9 14 0.00 0.00
11:53 pm 23:53 Clear 36 2.2 31 -0.6 82 82 Calm 30.22 1023 9 14 0.00 0.00

Powered by AerisWeather